This demonstration page uses our WeatherBlox Daily Observations layout. Learn more.

Left ArrowRight Arrow

34.74481, -87.66753

Hourly Observations for October 1, 2021

Temp ( °F °C ) Dew Point ( °F °C ) Humidity (%) Winds ( mph kmh ) Pressure ( in mb ) Visibility ( mi km ) Precip ( " mm )
12:15 am 00:15 Mostly Cloudy with Mist and Fog 71 21.7 68 20 90 90 N N/A 30.11 1020 2 3 N/A
12:23 am 00:23 Mostly Cloudy with Mist and Fog 71 21.7 68 20 90 90 N N/A 30.11 1020 3 4 N/A
12:32 am 00:32 Mostly Cloudy with Mist and Fog 72 22.2 68 20 87 87 SE 3 6 30.11 1020 3 5 N/A
12:34 am 00:34 Mostly Cloudy with Mist and Fog 71 21.7 68 20 90 90 N N/A 30.11 1020 3 4 N/A
12:53 am 00:53 Mostly Cloudy with Mist and Fog 71 21.7 68 20 90 90 N N/A 30.11 1020 5 8 N/A
1:45 am 01:45 Partly Cloudy with Mist and Fog 70 21.1 67 19.4 90 90 N N/A 30.11 1019 2 2 N/A
1:53 am 01:53 Mostly Clear with Fog 69 20.6 66 18.9 90 90 N N/A 30.11 1020 1 1 N/A
2:08 am 02:08 Clear with Mist and Fog 70 21.1 66 18.9 87 87 N N/A 30.12 1020 2 3 N/A
2:16 am 02:16 Clear with Mist and Fog 70 21.1 66 18.9 87 87 N N/A 30.12 1020 1 1 N/A
2:27 am 02:27 Mostly Cloudy with Fog 69 20.6 66 18.9 90 90 N N/A 30.11 1020 1 1 N/A
2:35 am 02:35 Partly Cloudy with Mist and Fog 69 20.6 66 18.9 90 90 N N/A 30.11 1020 1 2 N/A
2:42 am 02:42 Mostly Cloudy with Mist and Fog 69 20.6 66 18.9 90 90 N N/A 30.12 1020 1 1 N/A
2:53 am 02:53 Mostly Cloudy with Fog 69 20.6 66 18.9 90 90 N N/A 30.10 1019 1 1 N/A
3:00 am 03:00 Mostly Cloudy with Fog 69 20.6 66 18.9 90 90 N N/A 30.11 1020 0 0 N/A
3:22 am 03:22 Mostly Cloudy with Fog 69 20.6 65 18.3 87 87 NNE 3 6 30.10 1019 1 1 N/A
3:53 am 03:53 Mostly Cloudy with Mist and Fog 67 19.4 64 17.8 91 91 N N/A 30.10 1019 1 2 N/A
4:06 am 04:06 Mostly Cloudy with Fog 67 19.4 64 17.8 91 91 WSW 5 7 30.12 1020 1 1 N/A
4:53 am 04:53 Mostly Cloudy with Fog 66 18.9 63 17.2 90 90 N N/A 30.12 1020 1 1 N/A
5:53 am 05:53 Mostly Cloudy with Fog 67 19.4 64 17.8 91 91 N N/A 30.13 1020 1 1 N/A
6:21 am 06:21 Mostly Cloudy with Mist and Fog 66 18.9 63 17.2 90 90 N N/A 30.13 1020 1 2 N/A
6:28 am 06:28 Mostly Cloudy with Mist and Fog 66 18.9 64 17.8 93 93 N N/A 30.13 1020 1 1 N/A
6:32 am 06:32 Clear with Mist and Fog 66 18.9 63 17.2 90 90 ESE 3 6 30.13 1020 1 2 N/A
6:47 am 06:47 Sunny with Mist and Fog 66 19 64 18 94 94 N N/A 30.14 1021 3 5 N/A
6:53 am 06:53 Sunny with Mist and Fog 67 19.4 64 17.8 91 91 N N/A 30.13 1020 5 8 N/A
7:53 am 07:53 Partly Cloudy with Mist and Fog 71 21.7 67 19.4 87 87 NE 3 6 30.14 1021 6 10 N/A
8:53 am 08:53 Mostly Sunny 75 23.9 69 20.6 82 82 ESE 3 6 30.16 1021 7 11 N/A
9:53 am 09:53 Sunny 77 25 69 20.6 77 77 ESE 5 7 30.16 1022 9 14 N/A
10:53 am 10:53 Sunny 81 27.2 70 21.1 69 69 VRB 5 7 30.15 1021 10 16 N/A
11:53 am 11:53 Partly Cloudy 83 28.3 69 20.6 63 63 S 6 9 30.15 1021 10 16 N/A
12:53 pm 12:53 Mostly Sunny 86 30 67 19.4 53 53 SSW 6 9 30.14 1021 10 16 N/A
1:53 pm 13:53 Sunny 86 30 66 18.9 51 51 SSE 6 9 30.12 1020 10 16 N/A
2:53 pm 14:53 Sunny 87 30.6 65 18.3 48 48 SE 6 9 30.10 1019 10 16 N/A
3:53 pm 15:53 Mostly Sunny 85 29.4 64 17.8 50 50 S 5 7 30.10 1019 10 16 N/A
4:53 pm 16:53 Partly Cloudy 88 31.1 63 17.2 43 43 SSE 7 11 30.09 1019 10 16 N/A
5:53 pm 17:53 Sunny 82 27.8 67 19.4 60 60 SE 3 6 30.10 1019 10 16 N/A
6:53 pm 18:53 Clear 76 24.4 67 19.4 74 74 SE 3 6 30.10 1019 10 16 N/A
7:53 pm 19:53 Clear 72 22.2 67 19.4 84 84 SSE 3 6 30.12 1020 10 16 N/A
8:53 pm 20:53 Clear 73 22.8 66 18.9 79 79 N N/A 30.13 1020 10 16 N/A
9:53 pm 21:53 Clear 71 21.7 66 18.9 84 84 N N/A 30.13 1020 9 14 N/A
10:53 pm 22:53 Clear 70 21.1 65 18.3 84 84 N N/A 30.13 1020 8 13 N/A
11:53 pm 23:53 Clear with Mist and Fog 68 20 64 17.8 87 87 E 3 6 30.13 1020 6 10 N/A

Powered by AerisWeather